TimeEDT,TemperatureF,Dew PointF,Humidity,Sea Level PressureIn,VisibilityMPH,Wind Direction,Wind SpeedMPH,Gust SpeedMPH,PrecipitationIn,Events,Conditions,WindDirDegrees,DateUTC
12:53 AM,75.0,72.0,90,30.06,10.0,ENE,4.6,-,N/A,,Clear,60,2013-09-11 04:53:00
1:53 AM,73.9,72.0,93,30.05,10.0,NE,4.6,-,N/A,,Clear,50,2013-09-11 05:53:00
2:53 AM,73.9,72.0,93,30.03,10.0,NNE,5.8,-,N/A,,Clear,30,2013-09-11 06:53:00
3:53 AM,73.9,72.0,93,30.02,10.0,NE,5.8,-,N/A,,Clear,50,2013-09-11 07:53:00
4:53 AM,73.9,72.0,93,30.02,10.0,NE,8.1,-,N/A,,Clear,40,2013-09-11 08:53:00
5:53 AM,73.9,72.0,93,30.03,10.0,ENE,4.6,-,N/A,,Clear,60,2013-09-11 09:53:00
6:53 AM,73.9,72.0,93,30.05,10.0,ENE,5.8,-,N/A,,Scattered Clouds,60,2013-09-11 10:53:00
7:53 AM,75.0,73.0,94,30.06,10.0,NE,6.9,-,N/A,,Clear,50,2013-09-11 11:53:00
8:53 AM,79.0,73.9,84,30.07,10.0,ENE,9.2,-,N/A,,Clear,60,2013-09-11 12:53:00
9:53 AM,82.9,75.0,77,30.08,10.0,ENE,13.8,-,N/A,,Scattered Clouds,70,2013-09-11 13:53:00
10:53 AM,86.0,73.9,67,30.07,10.0,East,12.7,-,N/A,,Partly Cloudy,90,2013-09-11 14:53:00
11:53 AM,87.1,72.0,61,30.07,10.0,East,16.1,-,0.00,,Partly Cloudy,90,2013-09-11 15:53:00
12:53 PM,89.1,72.0,57,30.06,10.0,ESE,10.4,-,N/A,,Partly Cloudy,110,2013-09-11 16:53:00
1:53 PM,82.0,73.0,74,30.05,10.0,ENE,16.1,31.1,0.00,Rain,Light Rain,70,2013-09-11 17:53:00
2:29 PM,80.6,73.4,79,30.04,10.0,East,6.9,-,0.00,Rain,Light Rain,100,2013-09-11 18:29:00
2:51 PM,80.6,73.4,79,30.04,10.0,East,5.8,-,0.00,,Mostly Cloudy,90,2013-09-11 18:51:00
2:53 PM,81.0,73.0,77,30.04,10.0,East,5.8,-,0.00,,Mostly Cloudy,80,2013-09-11 18:53:00
3:53 PM,84.9,72.0,65,30.01,10.0,ENE,10.4,-,N/A,,Partly Cloudy,70,2013-09-11 19:53:00
4:53 PM,88.0,71.1,57,30.00,10.0,East,11.5,-,N/A,,Clear,90,2013-09-11 20:53:00
5:53 PM,87.1,72.0,61,30.01,10.0,SE,9.2,-,N/A,,Partly Cloudy,140,2013-09-11 21:53:00
6:53 PM,84.9,71.1,63,30.01,10.0,ESE,9.2,-,N/A,,Clear,110,2013-09-11 22:53:00
7:53 PM,82.0,73.0,74,30.02,10.0,East,4.6,-,N/A,,Clear,90,2013-09-11 23:53:00
8:53 PM,78.1,73.0,84,30.04,10.0,South,5.8,-,N/A,,Mostly Cloudy,190,2013-09-12 00:53:00
9:53 PM,78.1,75.0,90,30.05,10.0,NNE,5.8,-,N/A,,Mostly Cloudy,30,2013-09-12 01:53:00
10:53 PM,75.9,73.9,94,30.05,10.0,NNW,3.5,-,N/A,,Clear,330,2013-09-12 02:53:00
11:53 PM,75.9,73.9,94,30.05,10.0,Calm,Calm,-,N/A,,Mostly Cloudy,0,2013-09-12 03:53:00